Погода в Даурии

Россия / Забайкальский край     49°55′26″N   116°50′57″E
темп.,
°C
ветер,
м/с
пор.,
м/с
влажн.,
%
обл.,
%
осадки,
мм/ч
давл.,
гПа
погр.,
м
12 апреля, пн
пн1200:00−1ссв61022100 0.0 1023603
03:00−3ссв3528100 0.0 1023104
06:00−5ссз49345 0.0 1024218
09:00−3ссз67323 0.0 10251029
12:00−2ссз891919 0.0 10252396
15:00−1ссз891792 0.0 10242601
18:00−1ссз71017100 0.0 10233129
21:00−3ссв352290 0.0 1024155
13 апреля, вт
вт1300:00−5всв233019 0.0 102453
03:00−7вюв113316 0.0 102410
06:00−8всв11345 0.0 102310
09:00−4всв11260 0.0 1022418
12:000зсз46193 0.0 10192249
15:00+2зсз78165 0.0 10162652
18:00+3сз79140 0.0 10142403
21:000з33230 0.0 101434
14 апреля, ср
ср1400:00−2юз342695 0.0 101354
03:00−3ююз3428100 0.0 101166
06:00−2зюз3731100 0.0 1009138
09:00+2зсз71044100 0.0 1008750
12:00+5сз71045100 0.0 10071724
15:00+9сз7925100 0.0 10052409
18:00+8ссз5522100 0.0 10042484
21:00+6ссв2228100 0.0 100528
15 апреля, чт
чт1500:00+4всв41028100 0.0 1004369
03:00+3всв51033100 0.2 1002495
06:00+2всв81144100 0.9 10011063
09:00+1св81448100 1.8 10001490
12:00+2св101542100 0.6 9991837
15:00+2ссв101454100 0.8 10001816
18:00+2ссв91446100 0.1 10001853
21:00+1ссв81445100 0.1 10021266
16 апреля, пт
пт1600:000с51146100 0.0 1002529
03:00−1ссз91544100 0.0 1002972
06:00−2ссз91548100 0.0 10041068
09:000ссз111842100 0.0 10061649
12:00+2с121632100 0.0 10062521
15:00+4с111525100 0.0 10072851
18:00+6с9121895 0.0 10082830
21:00+2сз49243 0.0 1011142